{"data":{"norad_id":46130,"intl_designator":"2020-057P","name":"STARLINK-1624","alt_names":[],"object_type":"PAYLOAD","status":"ACTIVE","operator":null,"country":"US","launch_date":"2020-08-18","launch_site_code":"AFETR","launch_vehicle":null,"mission":null,"orbit_class":"UNKNOWN","rcs_meters":null,"size_class":null,"mass_kg":null,"dimensions":null,"purposes":["comms"],"wikipedia_slug":null,"has_3d_model":false,"image_url":null,"decayed_at":null,"tle_current":{"epoch":"2026-05-27T00:16:12.971136Z","epoch_age_seconds":10082933,"freshness":"OLD","line1":"1 46130U 20057P   26147.01126124  .11295235  12524-4  45513-3 0  9992","line2":"2 46130  53.0127 195.9911 0005715 310.4290  49.6259 16.43550406320921","mean_motion":16.43550406,"eccentricity":0.0005715,"inclination_deg":53.0127,"raan_deg":195.9911,"arg_perigee_deg":310.429,"mean_anomaly_deg":49.6259,"bstar":0.00045513,"rev_number":32092,"period_min":87.615201501766,"perigee_km":152.64046862369,"apogee_km":160.10941577362,"semimajor_km":6534.5119421987,"source":"CELESTRAK","updated_at":"2026-05-27T09:00:38.653743Z"}}}